Home   Weather   Matthews   Past weeks
Flag for USA

Past Weather in Matthews, USA — Yesterday and Last 2 Weeks

Now
79 °F

Broken clouds.


Feels Like: 81 °F
Forecast: 89 / 71 °F
Wind: 10 mph from Southeast

Location: Charlotte / Douglas International Airport

Current Time: Jul 6, 2020 at 5:57:59 pm

Latest Report: Jul 6, 2020 at 4:52 pm


Visibility: 10 mi

Pressure: 30.04 "Hg

Humidity: 67%

Dew Point: 67 °F

Location of MatthewsLocation

Past Weather in Matthews — Graph

°F

Matthews Temperature Yesterday

Maximum temperature yesterday: 90 °F (at 12:52 pm)
Minimum temperature yesterday: 74 °F (at 5:52 am)
Average temperature yesterday: 82 °F

High & Low Weather Summary for the Past Weeks

 TemperatureHumidityPressure
High93 °F (Jul 3, 3:52 pm)96% (Jun 26, 5:52 am)30.16 "Hg (Jun 26, 5:52 am)
Low66 °F (Jun 26, 5:52 am)32% (Jul 3, 5:52 pm)29.79 "Hg (Jun 23, 6:52 pm)
Average79 °F70%29.94 "Hg
* Reported Jun 21 3:52 pm — Jul 6 3:52 pm, Matthews. Weather by CustomWeather, © 2020

Note: Actual official high and low records may vary slightly from our data, if they occured in-between our weather recording intervals... More about our weather records

Matthews Weather History for the Previous 24 Hours

Scroll right to see more
 ConditionsComfort  
Time TempWeatherWind HumidityBarometerVisibility
3:52 pm
Mon, Jul 6
77 °FLight rain. Mostly cloudy.15 mph71%30.06 "Hg10 mi
2:52 pm85 °FMostly cloudy.7 mph51%30.04 "Hg10 mi
1:52 pm88 °FBroken clouds.3 mph45%30.04 "Hg10 mi
12:52 pm86 °FPartly sunny.6 mph48%30.06 "Hg10 mi
11:52 am85 °FBroken clouds.8 mph51%30.08 "Hg10 mi
10:52 am84 °FScattered clouds.6 mph57%30.07 "Hg10 mi
9:52 am82 °FBroken clouds.7 mph63%30.07 "Hg10 mi
8:52 am78 °FScattered clouds.No wind74%30.06 "Hg10 mi
7:52 am75 °FScattered clouds.No wind79%30.06 "Hg10 mi
6:52 am69 °FPartly sunny.No wind87%30.03 "Hg10 mi
5:52 am71 °FPassing clouds.No wind87%30.02 "Hg10 mi
4:52 am72 °FPassing clouds.3 mph84%30.00 "Hg10 mi
3:52 am73 °FPassing clouds.5 mph81%30.00 "Hg10 mi
2:52 am75 °FPassing clouds.5 mph76%30.01 "Hg10 mi
1:52 am75 °FPassing clouds.No wind74%30.02 "Hg10 mi
12:52 am77 °FPassing clouds.3 mph69%30.03 "Hg10 mi
11:52 pm
Sun, Jul 5
77 °FPassing clouds.5 mph69%30.01 "Hg10 mi
10:52 pm80 °FPassing clouds.3 mph60%30.01 "Hg10 mi
9:52 pm81 °FPassing clouds.6 mph60%29.98 "Hg10 mi
8:52 pm84 °FOvercast.9 mph57%29.96 "Hg10 mi
7:52 pm83 °FPartly sunny.3 mph59%29.94 "Hg10 mi
6:52 pm86 °FPartly sunny.6 mph61%29.93 "Hg10 mi
5:52 pm84 °FBroken clouds.9 mph70%29.93 "Hg10 mi
Weather by CustomWeather, © 2020

See weather overview